When you browse on this site, cookies collect data to enhance your experience and personalize the content and advertising you see.
Visit our Privacy Policy to learn more. By continuing to use the site, you agree to this use of cookies and data.
  • In Hungary
  • List of Countries
  • For 7 days
  • Water Temperature
  • Satellite Maps
  • Weather Map
  • News
  • Weather Widgets
  • user-avatar
    Login

    Hourly Weather Pamporovo

    Today, 18 November, Sunday

    Time Temperature Precipitation Wind Pressure Humidity
    00:00 -6°C° 0 mm 2 mps 628 mmHg 82%
    01:00 -6°C° 0 mm 2 mps 628 mmHg 83%
    02:00 -6°C° 0 mm 2 mps 628 mmHg 83%
    03:00 -6°C° 0 mm 2 mps 627 mmHg 84%
    04:00 -6°C° 0 mm 2 mps 627 mmHg 84%
    05:00 -5°C° 0 mm 2 mps 627 mmHg 85%
    06:00 -5°C° 0.1 mm 2 mps 627 mmHg 84%
    07:00 -5°C° 0.1 mm 2 mps 627 mmHg 84%
    08:00 -5°C° 0.1 mm 2 mps 627 mmHg 84%
    09:00 -4°C° 0.1 mm 2 mps 626 mmHg 82%
    10:00 -3°C° 0.1 mm 2 mps 626 mmHg 81%
    11:00 -3°C° 0.1 mm 2 mps 626 mmHg 79%
    12:00 -3°C° 0.4 mm 2 mps 626 mmHg 81%
    13:00 -3°C° 0.4 mm 2 mps 625 mmHg 82%
    14:00 -3°C° 0.4 mm 2 mps 624 mmHg 83%
    15:00 -3°C° 1.2 mm 2 mps 623 mmHg 85%
    16:00 -3°C° 1.2 mm 2 mps 623 mmHg 88%
    17:00 -4°C° 1.2 mm 2 mps 622 mmHg 90%
    18:00 -4°C° 2.2 mm 2 mps 622 mmHg 90%
    19:00 -4°C° 2.2 mm 2 mps 621 mmHg 91%
    20:00 -4°C° 2.2 mm 2 mps 621 mmHg 92%
    21:00 -4°C° 2.7 mm 2 mps 620 mmHg 92%
    22:00 -4°C° 2.7 mm 2 mps 620 mmHg 92%
    23:00 -4°C° 2.7 mm 2 mps 619 mmHg 92%

    Tomorrow, 19 November, Monday

    Time Temperature Precipitation Wind Pressure Humidity
    00:00 -4°C° 2.3 mm 2 mps 619 mmHg 92%
    01:00 -4°C° 2.3 mm 2 mps 619 mmHg 92%
    02:00 -4°C° 2.3 mm 2 mps 618 mmHg 92%
    03:00 -3°C° 0.2 mm 2 mps 618 mmHg 92%
    04:00 -3°C° 0.2 mm 2 mps 618 mmHg 91%
    05:00 -3°C° 0.2 mm 2 mps 618 mmHg 91%
    06:00 -1°C° 0 mm 1 mps 618 mmHg 90%
    07:00 -1°C° 0 mm 1 mps 619 mmHg 89%
    08:00 -1°C° 0 mm 1 mps 619 mmHg 88%
    09:00 0°C° 0 mm 1 mps 620 mmHg 86%
    10:00 +2°C° 0 mm 1 mps 621 mmHg 83%
    11:00 +3°C° 0 mm 1 mps 622 mmHg 80%
    12:00 +3°C° 0 mm 1 mps 622 mmHg 79%
    13:00 +4°C° 0 mm 1 mps 623 mmHg 78%
    14:00 +4°C° 0 mm 1 mps 623 mmHg 76%
    15:00 +3°C° 0 mm 1 mps 623 mmHg 79%
    16:00 +2°C° 0 mm 1 mps 623 mmHg 82%
    17:00 0°C° 0 mm 0 mps 622 mmHg 86%
    18:00 0°C° 0 mm 1 mps 623 mmHg 86%
    19:00 0°C° 0 mm 1 mps 623 mmHg 87%
    20:00 -1°C° 0 mm 1 mps 623 mmHg 88%
    21:00 -1°C° 0 mm 1 mps 624 mmHg 88%
    22:00 -1°C° 0 mm 1 mps 624 mmHg 88%
    23:00 -2°C° 0 mm 1 mps 624 mmHg 88%

    Day after tomorrow, 20 November, Tuesday

    Time Temperature Precipitation Wind Pressure Humidity
    00:00 -2°C° 0 mm 1 mps 624 mmHg 88%
    01:00 -2°C° 0 mm 1 mps 624 mmHg 88%
    02:00 -2°C° 0 mm 1 mps 624 mmHg 87%
    03:00 -2°C° 0 mm 1 mps 624 mmHg 88%
    04:00 -2°C° 0 mm 1 mps 624 mmHg 88%
    05:00 -2°C° 0 mm 1 mps 624 mmHg 89%
    06:00 -2°C° 0 mm 1 mps 625 mmHg 89%
    07:00 -2°C° 0 mm 1 mps 625 mmHg 89%
    08:00 -1°C° 0 mm 1 mps 625 mmHg 89%
    09:00 0°C° 0 mm 1 mps 625 mmHg 88%
    10:00 +1°C° 0 mm 1 mps 626 mmHg 88%
    11:00 +1°C° 0 mm 2 mps 626 mmHg 87%
    12:00 +1°C° 0 mm 2 mps 626 mmHg 87%
    13:00 +1°C° 0 mm 2 mps 625 mmHg 87%
    14:00 +2°C° 0 mm 2 mps 625 mmHg 87%
    15:00 +1°C° 0.1 mm 2 mps 625 mmHg 89%
    16:00 +1°C° 0.1 mm 2 mps 624 mmHg 91%
    17:00 +2°C° 0.1 mm 1 mps 624 mmHg 94%
    18:00 +2°C° 0.1 mm 1 mps 624 mmHg 94%
    19:00 +2°C° 0.1 mm 1 mps 624 mmHg 94%
    20:00 +2°C° 0.1 mm 1 mps 624 mmHg 94%
    21:00 +2°C° 0.1 mm 1 mps 624 mmHg 95%
    22:00 +2°C° 0.1 mm 1 mps 624 mmHg 95%
    23:00 +3°C° 0.1 mm 1 mps 624 mmHg 96%

    21 November, Wednesday

    Time Temperature Precipitation Wind Pressure Humidity
    00:00 +3°C° 0.2 mm 1 mps 623 mmHg 96%
    01:00 +2°C° 0.2 mm 2 mps 623 mmHg 97%
    02:00 +2°C° 0.2 mm 2 mps 622 mmHg 97%
    03:00 +2°C° 0.2 mm 2 mps 622 mmHg 97%
    04:00 +3°C° 0.2 mm 2 mps 621 mmHg 97%
    05:00 +3°C° 0.2 mm 2 mps 621 mmHg 97%
    06:00 +3°C° 1.2 mm 2 mps 620 mmHg 97%
    07:00 +3°C° 1.2 mm 2 mps 620 mmHg 97%
    08:00 +3°C° 1.2 mm 2 mps 620 mmHg 97%
    09:00 +4°C° 0.3 mm 2 mps 620 mmHg 94%
    10:00 +5°C° 0.3 mm 2 mps 620 mmHg 91%
    11:00 +6°C° 0.3 mm 2 mps 621 mmHg 88%
    12:00 +6°C° 0.2 mm 2 mps 621 mmHg 85%
    13:00 +5°C° 0.2 mm 3 mps 621 mmHg 82%
    14:00 +7°C° 0.2 mm 3 mps 621 mmHg 80%
    15:00 +6°C° 0.6 mm 2 mps 621 mmHg 83%
    16:00 +4°C° 0.6 mm 2 mps 621 mmHg 86%
    17:00 +3°C° 0.6 mm 2 mps 621 mmHg 90%
    18:00 +3°C° 0.1 mm 2 mps 621 mmHg 90%
    19:00 +2°C° 0.1 mm 2 mps 621 mmHg 89%
    20:00 +2°C° 0.1 mm 2 mps 621 mmHg 89%
    21:00 +1°C° 0 mm 2 mps 622 mmHg 88%
    22:00 +1°C° 0 mm 2 mps 622 mmHg 88%
    23:00 +1°C° 0 mm 2 mps 622 mmHg 87%

    22 November, Thursday

    Time Temperature Precipitation Wind Pressure Humidity
    00:00 +1°C° 0 mm 2 mps 622 mmHg 87%
    01:00 -1°C° 0 mm 2 mps 623 mmHg 87%
    02:00 -1°C° 0 mm 2 mps 623 mmHg 86%
    03:00 -1°C° 0 mm 2 mps 623 mmHg 87%
    04:00 -1°C° 0 mm 2 mps 623 mmHg 87%
    05:00 -1°C° 0 mm 2 mps 624 mmHg 87%
    06:00 -1°C° 0 mm 2 mps 624 mmHg 87%
    07:00 -1°C° 0 mm 2 mps 625 mmHg 87%
    08:00 -1°C° 0 mm 2 mps 625 mmHg 87%
    09:00 +3°C° 0 mm 1 mps 626 mmHg 82%
    10:00 +4°C° 0 mm 1 mps 627 mmHg 76%
    11:00 +5°C° 0 mm 1 mps 628 mmHg 71%
    12:00 +6°C° 0 mm 1 mps 628 mmHg 71%
    13:00 +6°C° 0 mm 1 mps 628 mmHg 70%
    14:00 +6°C° 0 mm 1 mps 628 mmHg 70%
    15:00 +5°C° 0 mm 1 mps 628 mmHg 75%
    16:00 +4°C° 0 mm 1 mps 627 mmHg 80%
    17:00 +3°C° 0 mm 1 mps 627 mmHg 85%
    18:00 +2°C° 0 mm 1 mps 627 mmHg 86%
    19:00 +2°C° 0 mm 1 mps 628 mmHg 88%
    20:00 +2°C° 0 mm 1 mps 628 mmHg 89%
    21:00 +1°C° 0 mm 1 mps 628 mmHg 90%
    22:00 +1°C° 0 mm 1 mps 628 mmHg 91%
    23:00 +1°C° 0 mm 1 mps 628 mmHg 91%

    23 November, Friday

    Time Temperature Precipitation Wind Pressure Humidity
    00:00 +1°C° 0 mm 1 mps 628 mmHg 92%
    01:00 0°C° 0 mm 1 mps 628 mmHg 92%
    02:00 0°C° 0 mm 1 mps 628 mmHg 92%
    03:00 0°C° 0.1 mm 1 mps 628 mmHg 92%
    04:00 0°C° 0.1 mm 1 mps 628 mmHg 92%
    05:00 -1°C° 0.1 mm 1 mps 628 mmHg 92%
    06:00 -1°C° 0 mm 1 mps 628 mmHg 92%
    07:00 -1°C° 0 mm 1 mps 629 mmHg 91%
    08:00 -1°C° 0 mm 1 mps 629 mmHg 90%
    09:00 0°C° 0 mm 1 mps 630 mmHg 84%
    10:00 +2°C° 0 mm 1 mps 630 mmHg 78%
    11:00 +3°C° 0 mm 1 mps 631 mmHg 72%
    12:00 +3°C° 0 mm 1 mps 631 mmHg 72%
    13:00 +3°C° 0 mm 1 mps 631 mmHg 71%
    14:00 +4°C° 0 mm 1 mps 631 mmHg 71%
    15:00 +3°C° 0 mm 1 mps 630 mmHg 75%
    16:00 +2°C° 0 mm 1 mps 630 mmHg 80%
    17:00 +1°C° 0 mm 1 mps 630 mmHg 84%
    18:00 0°C° 0 mm 1 mps 630 mmHg 85%
    19:00 0°C° 0 mm 1 mps 630 mmHg 87%
    20:00 0°C° 0 mm 1 mps 630 mmHg 88%
    21:00 -1°C° 0 mm 1 mps 630 mmHg 89%
    22:00 -1°C° 0 mm 1 mps 630 mmHg 90%
    23:00 -1°C° 0 mm 1 mps 630 mmHg 90%
    Show more